Temp
-5 -5 -6 -7 -7 -6 -7 -6 -6 -6 -6 -5 -5 -6 -6 -6 -6 -6 -6 -6 -5 -5 -5 -5 -6 -6 -7 -7 -6 -7 -7 -7 -7 -7 -7 -7 -7 -6 -7 -7 -7 -7 -7 -7
-5 -5 -7 -7 -7 -7 -7 -7 -7 -6 -6 -6 -5 -4 -6 -6 -6 -6 -6 -6 -5 -5 -5 -5 -5 -6 -6 -6 -6 -6 -7 -6 -6 -7 -6 -7 -7 -7 -7 -7 -7 -7 -7 -7
-5 -5 -6 -7 -7 -7 -7 -7 -6 -6 -6 -7 -6 -6 -5 -5 -6 -6 -6 -6 -6 -5 -4 -4 -5 -5 -6 -6 -6 -6 -6 -6 -6 -6 -6 -6 -6 -6 -6 -7 -7 -7 -7 -7
-5 -6 -7 -6 -7 -7 -8 -7 -7 -6 -6 -7 -6 -6 -5 -5 -5 -6 -5 -6 -6 -5 -5 -5 -5 -5 -5 -6 -6 -6 -6 -6 -6 -6 -6 -7 -6 -6 -6 -7 -7 -7 -7 -7
-5 -6 -7 -6 -7 -8 -8 -8 -7 -5 -6 -6 -6 -6 -5 -5 -4 -4 -5 -5 -6 -6 -6 -5 -5 -5 -5 -5 -6 -6 -6 -6 -6 -6 -7 -7 -7 -6 -7 -7 -7 -7 -7 -7
-6 -6 -7 -7 -8 -8 -8 -8 -7 -6 -5 -5 -5 -6 -6 -6 -6 -7 -5 -5 -5 -5 -5 -5 -5 -5 -5 -5 -6 -6 -6 -6 -6 -7 -7 -7 -7 -7 -7 -7 -7 -7 -7 -7
-6 -6 -7 -8 -8 -8 -8 -7 -7 -6 -5 -6 -5 -5 -6 -5 -5 -5 -6 -5 -5 -5 -5 -5 -5 -5 -5 -5 -5 -6 -6 -6 -6 -7 -7 -7 -7 -7 -7 -7 -7 -7 -7 -7
-6 -6 -6 -7 -7 -7 -7 -8 -7 -6 -6 -5 -6 -4 -6 -6 -5 -5 -5 -6 -5 -5 -5 -5 -5 -5 -5 -5 -5 -6 -6 -6 -7 -7 -7 -7 -7 -7 -7 -7 -7 -7 -7 -7
-7 -7 -7 -7 -8 -8 -8 -8 -8 -7 -7 -7 -6 -5 -6 -6 -6 -6 -6 -6 -6 -5 -5 -5 -5 -5 -5 -5 -5 -6 -6 -6 -6 -7 -8 -8 -8 -7 -7 -7 -7 -7 -7 -7
-7 -7 -7 -7 -8 -8 -8 -8 -8 -8 -7 -7 -7 -5 -5 -6 -5 -6 -5 -5 -5 -5 -5 -5 -5 -5 -5 -5 -5 -6 -6 -6 -7 -7 -8 -8 -8 -8 -8 -7 -7 -7 -7 -7
-8 -7 -8 -7 -7 -8 -8 -8 -8 -8 -8 -8 -8 -8 -5 -5 -5 -6 -5 -4 -5 -5 -6 -5 -6 -6 -5 -5 -6 -6 -6 -7 -7 -7 -7 -8 -8 -8 -8 -8 -7 -7 -7 -7
-9 -7 -8 -8 -8 -8 -8 -8 -8 -8 -8 -8 -8 -7 -6 -6 -5 -6 -6 -5 -5 -5 -6 -6 -6 -5 -5 -5 -6 -6 -6 -6 -7 -7 -7 -7 -8 -9 -9 -8 -8 -8 -7 -7
-9 -8 -8 -8 -8 -9 -9 -8 -8 -8 -8 -8 -7 -7 -6 -7 -7 -6 -6 -6 -6 -6 -6 -6 -6 -6 -6 -5 -5 -6 -6 -7 -7 -7 -7 -7 -7 -8 -9 -9 -7 -7 -7 -7
-8 -9 -8 -8 -8 -9 -8 -8 -8 -8 -8 -7 -7 -7 -7 -7 -7 -7 -6 -6 -6 -6 -6 -6 -7 -7 -7 -6 -6 -6 -7 -7 -7 -7 -7 -7 -7 -8 -8 -8 -7 -7 -7 -7
-8 -8 -8 -8 -8 -8 -8 -8 -8 -8 -8 -7 -7 -7 -7 -7 -7 -7 -7 -6 -6 -6 -6 -6 -6 -7 -7 -6 -5 -6 -7 -7 -7 -7 -7 -7 -7 -7 -7 -7 -7 -6 -7 -7
-9 -9 -8 -8 -8 -8 -8 -8 -8 -7 -7 -7 -7 -7 -7 -7 -7 -7 -7 -7 -6 -6 -7 -6 -6 -7 -7 -6 -6 -7 -7 -7 -7 -7 -7 -7 -7 -7 -7 -7 -7 -7 -7 -7
-9 -9 -9 -9 -8 -8 -8 -8 -8 -8 -8 -7 -7 -7 -7 -7 -7 -7 -7 -7 -7 -6 -6 -6 -7 -7 -7 -7 -7 -7 -7 -7 -7 -8 -7 -7 -7 -7 -7 -8 -8 -8 -8 -8
-9 -9 -9 -9 -9 -8 -8 -8 -8 -8 -8 -8 -8 -7 -7 -7 -7 -7 -7 -7 -7 -7 -7 -6 -7 -7 -7 -7 -7 -7 -7 -7 -7 -8 -8 -7 -8 -7 -8 -8 -8 -8 -9 -9
-9 -9 -9 -10 -9 -9 -8 -8 -8 -8 -8 -8 -8 -8 -7 -7 -7 -7 -7 -7 -7 -7 -7 -7 -7 -7 -7 -7 -7 -7 -7 -7 -8 -8 -8 -8 -8 -8 -8 -8 -8 -8 -9 -9
-10 -10 -9 -10 -10 -9 -9 -9 -8 -8 -8 -8 -8 -8 -7 -7 -7 -7 -7 -7 -7 -7 -7 -7 -7 -7 -7 -7 -7 -7 -7 -7 -8 -9 -9 -9 -9 -9 -9 -8 -8 -8 -9 -9
-10 -10 -9 -10 -10 -10 -9 -9 -9 -8 -8 -8 -8 -8 -7 -7 -7 -7 -7 -7 -7 -7 -7 -8 -8 -8 -8 -8 -7 -8 -8 -7 -8 -9 -9 -9 -9 -9 -9 -9 -9 -9 -8 -8
-12 -11 -10 -9 -9 -9 -9 -9 -9 -8 -8 -8 -8 -7 -7 -7 -7 -7 -7 -7 -7 -7 -7 -8 -8 -8 -8 -8 -8 -8 -8 -8 -8 -9 -9 -9 -9 -9 -9 -9 -9 -9 -9 -9
-12 -11 -11 -10 -10 -9 -9 -9 -9 -8 -8 -8 -8 -7 -7 -7 -7 -7 -7 -7 -7 -8 -8 -8 -8 -8 -8 -8 -8 -8 -8 -8 -8 -8 -9 -9 -9 -9 -9 -9 -9 -9 -9 -9
-11 -11 -11 -11 -10 -10 -10 -10 -9 -9 -8 -9 -8 -8 -7 -7 -7 -7 -7 -8 -8 -8 -8 -8 -8 -8 -8 -8 -8 -8 -8 -8 -8 -8 -9 -9 -9 -8 -9 -9 -9 -9 -9 -9
-11 -11 -11 -11 -11 -11 -10 -10 -10 -9 -9 -9 -9 -8 -8 -8 -7 -8 -8 -8 -8 -8 -8 -8 -8 -8 -8 -8 -8 -8 -8 -8 -8 -8 -8 -8 -8 -8 -9 -9 -9 -9 -9 -9
-11 -11 -11 -11 -11 -11 -10 -10 -10 -9 -9 -9 -9 -9 -8 -8 -8 -8 -9 -9 -8 -8 -8 -8 -8 -8 -8 -8 -8 -8 -8 -8 -8 -8 -8 -8 -8 -9 -9 -9 -9 -9 -9 -9
Height
5894 5898 5900 5901 5901 5902 5902 5904 5904 5906 5906 5905 5904 5907 5906 5906 5905 5905 5905 5907 5908 5906 5905 5903 5905 5906 5907 5908 5909 5910 5910 5912 5912 5913 5914 5914 5914 5915 5915 5916 5917 5918 5918 5918
5891 5898 5898 5898 5899 5901 5902 5903 5904 5904 5902 5903 5905 5906 5909 5908 5908 5907 5907 5906 5907 5908 5907 5906 5904 5906 5907 5908 5909 5910 5911 5911 5910 5911 5911 5911 5912 5912 5913 5913 5914 5915 5915 5915
5887 5896 5894 5896 5899 5899 5900 5902 5903 5903 5903 5901 5904 5906 5909 5909 5908 5908 5907 5906 5907 5908 5908 5907 5906 5904 5905 5906 5907 5910 5911 5910 5910 5910 5910 5910 5909 5909 5910 5911 5913 5913 5913 5912
5883 5888 5889 5893 5897 5899 5900 5900 5900 5901 5901 5902 5903 5905 5907 5909 5908 5907 5908 5907 5907 5907 5907 5907 5906 5906 5905 5905 5906 5908 5908 5908 5909 5908 5908 5909 5908 5907 5908 5909 5910 5910 5911 5912
5880 5884 5885 5892 5897 5897 5897 5895 5896 5899 5899 5900 5902 5904 5905 5905 5905 5904 5904 5906 5907 5906 5907 5908 5907 5906 5906 5905 5906 5906 5905 5906 5907 5906 5906 5907 5906 5906 5906 5907 5908 5909 5910 5910
5874 5878 5880 5888 5890 5891 5892 5894 5896 5898 5900 5902 5903 5904 5906 5906 5904 5900 5902 5904 5906 5907 5907 5908 5909 5908 5907 5906 5905 5905 5904 5903 5904 5904 5905 5906 5906 5905 5905 5905 5906 5907 5908 5908
5870 5872 5875 5880 5885 5887 5889 5892 5894 5898 5901 5902 5900 5903 5904 5905 5904 5903 5903 5904 5905 5905 5906 5906 5908 5908 5907 5907 5905 5905 5904 5903 5904 5903 5904 5905 5905 5905 5905 5905 5905 5905 5907 5907
5864 5867 5872 5874 5878 5886 5888 5890 5892 5893 5895 5898 5897 5901 5901 5903 5904 5903 5903 5903 5905 5905 5905 5905 5906 5908 5907 5907 5905 5904 5904 5902 5904 5904 5903 5903 5903 5904 5904 5904 5904 5904 5905 5906
5859 5862 5866 5870 5876 5882 5883 5884 5889 5888 5890 5890 5891 5895 5897 5899 5901 5902 5899 5898 5901 5903 5904 5904 5904 5905 5907 5906 5904 5903 5903 5902 5903 5903 5902 5901 5901 5902 5903 5903 5903 5903 5904 5904
5854 5857 5858 5863 5868 5872 5874 5882 5882 5883 5884 5885 5886 5889 5893 5895 5897 5899 5897 5896 5898 5901 5903 5904 5903 5903 5904 5906 5904 5904 5903 5901 5900 5902 5901 5899 5898 5899 5900 5901 5901 5901 5902 5902
5851 5853 5855 5856 5860 5865 5870 5873 5877 5880 5880 5881 5881 5882 5889 5892 5892 5894 5897 5896 5897 5899 5901 5901 5901 5901 5902 5902 5903 5903 5901 5901 5899 5900 5900 5898 5895 5895 5897 5897 5898 5899 5900 5901
5849 5850 5850 5853 5856 5862 5867 5870 5874 5874 5878 5878 5877 5878 5881 5883 5886 5888 5892 5895 5895 5897 5898 5899 5899 5899 5899 5900 5901 5902 5900 5898 5897 5898 5898 5896 5893 5891 5893 5894 5895 5896 5898 5899
5846 5847 5849 5850 5852 5855 5859 5864 5867 5870 5873 5874 5875 5875 5874 5876 5880 5884 5888 5892 5893 5894 5896 5897 5898 5898 5898 5898 5900 5900 5900 5896 5895 5895 5896 5894 5891 5888 5890 5891 5892 5895 5897 5898
5841 5842 5845 5848 5851 5853 5856 5860 5863 5866 5868 5871 5871 5871 5870 5872 5875 5880 5883 5886 5889 5890 5893 5894 5896 5896 5895 5896 5897 5898 5898 5897 5894 5893 5893 5893 5890 5888 5888 5890 5891 5893 5895 5897
5835 5836 5839 5844 5848 5849 5852 5855 5859 5861 5864 5865 5868 5866 5866 5867 5871 5874 5878 5880 5882 5885 5889 5892 5893 5893 5893 5893 5895 5896 5897 5895 5893 5890 5890 5890 5889 5888 5886 5888 5889 5892 5894 5895
5825 5827 5831 5837 5840 5842 5845 5850 5852 5855 5857 5860 5861 5860 5865 5864 5863 5868 5871 5875 5878 5882 5886 5889 5890 5891 5892 5893 5893 5894 5894 5892 5891 5890 5889 5887 5887 5886 5885 5886 5888 5889 5891 5893
5816 5818 5821 5827 5831 5835 5838 5843 5847 5850 5852 5854 5856 5859 5860 5860 5859 5863 5867 5871 5875 5879 5882 5885 5887 5889 5890 5891 5891 5891 5891 5890 5890 5889 5887 5885 5885 5884 5884 5885 5887 5887 5889 5891
5804 5808 5810 5816 5822 5826 5833 5838 5840 5842 5846 5849 5852 5855 5857 5856 5855 5857 5863 5868 5872 5875 5878 5881 5883 5886 5888 5888 5888 5889 5889 5889 5889 5888 5887 5884 5883 5883 5884 5886 5887 5887 5887 5888
5789 5795 5797 5803 5811 5818 5825 5829 5833 5834 5839 5844 5847 5851 5852 5853 5853 5855 5859 5864 5868 5872 5875 5878 5881 5883 5884 5883 5884 5886 5886 5888 5888 5888 5887 5884 5883 5883 5885 5887 5887 5887 5886 5888
5774 5779 5786 5790 5798 5805 5815 5819 5822 5825 5830 5835 5839 5844 5846 5848 5850 5853 5856 5860 5864 5867 5870 5873 5876 5878 5878 5879 5880 5881 5883 5885 5886 5887 5887 5886 5885 5884 5884 5886 5888 5888 5888 5890
5759 5763 5771 5778 5785 5795 5804 5808 5812 5818 5826 5827 5832 5837 5841 5843 5847 5849 5852 5856 5859 5862 5865 5868 5871 5873 5874 5873 5874 5877 5879 5882 5883 5884 5886 5887 5886 5886 5886 5887 5888 5889 5890 5891
5747 5752 5759 5767 5773 5783 5796 5799 5805 5809 5812 5819 5824 5831 5835 5838 5842 5842 5847 5852 5855 5858 5860 5863 5865 5868 5869 5869 5869 5872 5876 5878 5880 5882 5884 5886 5886 5887 5888 5889 5890 5890 5891 5892
5738 5743 5750 5757 5764 5772 5787 5792 5796 5800 5805 5810 5817 5825 5829 5833 5836 5839 5843 5847 5850 5852 5855 5857 5860 5861 5863 5866 5866 5867 5872 5874 5877 5880 5882 5883 5884 5885 5887 5889 5890 5891 5892 5892
5726 5733 5739 5745 5752 5759 5771 5781 5788 5792 5798 5803 5809 5816 5822 5826 5830 5833 5837 5840 5843 5846 5848 5851 5853 5855 5858 5860 5861 5864 5865 5869 5873 5876 5878 5880 5882 5883 5885 5886 5888 5890 5890 5891
5712 5722 5730 5737 5742 5748 5758 5769 5779 5785 5791 5796 5801 5808 5814 5819 5823 5826 5830 5833 5836 5838 5840 5843 5846 5849 5850 5853 5855 5857 5860 5863 5868 5871 5874 5875 5878 5879 5880 5882 5884 5886 5887 5888
5696 5708 5718 5726 5732 5740 5746 5756 5770 5777 5784 5790 5795 5800 5805 5811 5814 5817 5820 5823 5826 5829 5832 5836 5838 5840 5841 5844 5848 5850 5853 5857 5861 5864 5868 5871 5874 5875 5874 5877 5879 5881 5882 5883
Wind_Speed
14 10 5 10 10 4 6 6 7 5 6 4 2 6 9 5 0 2 0 2 2 5 8 10 6 4 4 7 8 8 11 12 9 10 13 11 12 13 12 11 11 10 10 11
19 8 14 16 14 10 6 6 5 6 11 4 2 6 1 5 4 3 3 1 2 5 7 8 9 7 6 3 7 6 8 9 7 7 9 6 10 9 7 8 10 12 15 15
23 14 20 18 16 14 8 5 6 4 5 4 4 7 2 1 4 1 1 1 2 2 5 8 6 6 5 4 6 6 4 7 5 6 6 6 9 9 8 10 10 13 12 14
27 22 25 24 21 17 11 8 11 9 11 5 8 8 5 5 8 1 4 6 6 5 5 5 4 2 5 4 2 3 2 4 5 4 4 4 5 6 7 9 10 12 11 12
26 27 28 24 22 24 19 19 20 16 14 17 15 7 3 4 9 15 13 12 13 12 10 8 5 3 2 3 2 0 1 1 1 2 4 5 4 4 6 7 5 8 9 9
27 31 32 28 33 31 26 24 21 16 15 15 12 6 4 3 8 11 15 14 16 14 13 11 8 5 5 3 2 1 3 3 4 4 3 3 3 3 4 4 4 5 8 10
23 31 36 36 38 34 28 26 22 20 16 13 15 11 8 5 10 10 8 13 15 16 16 13 8 6 6 3 3 3 2 1 4 3 3 2 3 4 2 4 4 4 5 3
20 29 36 40 39 37 33 31 30 26 23 20 22 16 7 7 12 17 20 15 13 15 16 14 11 10 7 4 5 5 4 4 1 5 6 4 5 5 4 3 6 4 3 5
14 20 29 37 41 35 37 37 29 30 27 25 23 20 15 11 7 11 11 19 17 15 15 15 14 11 9 7 6 7 5 4 1 2 7 6 8 5 5 7 7 7 7 7
15 19 25 32 39 45 42 35 32 28 26 25 26 22 16 17 13 6 8 12 17 16 13 13 14 14 11 8 6 4 4 5 3 6 6 9 9 7 7 9 10 10 8 8
17 24 21 29 37 44 44 42 36 31 28 26 29 30 13 22 21 15 6 8 15 16 15 14 16 15 10 6 4 5 1 5 7 6 7 7 8 7 8 11 12 9 9 9
19 21 22 24 29 37 43 39 36 37 32 31 35 35 26 18 28 18 15 16 16 19 17 15 15 11 11 9 3 8 4 4 7 7 8 8 6 10 11 11 13 11 10 9
22 20 20 22 27 37 43 40 39 41 37 35 33 17 14 21 25 25 17 15 22 22 17 16 14 15 15 11 5 5 9 4 5 7 8 7 2 9 15 13 14 14 12 10
27 27 26 26 26 30 33 37 42 39 32 25 19 9 7 26 25 18 12 12 20 29 22 16 14 11 12 12 8 7 11 10 9 8 9 6 4 6 10 13 14 13 12 12
33 33 30 26 27 30 31 29 29 34 34 29 22 20 11 18 28 23 15 15 16 21 24 20 13 7 10 8 8 8 12 11 11 7 8 9 8 8 9 9 11 10 12 13
36 36 35 31 24 31 36 34 34 32 33 33 33 31 15 14 35 25 21 19 18 17 18 18 13 12 8 8 10 10 14 12 9 7 5 6 8 9 8 8 8 8 11 13
43 42 41 36 32 28 38 40 36 34 33 34 31 18 12 20 20 34 27 25 22 18 17 18 18 14 11 7 10 8 17 11 9 6 4 2 7 7 6 6 6 4 7 13
53 49 48 45 38 35 32 36 39 35 36 32 25 19 17 14 17 31 30 24 23 19 18 19 20 13 14 12 13 14 19 13 9 4 2 1 4 6 6 9 6 3 4 7
62 59 55 49 45 42 34 35 39 42 38 35 30 24 23 17 13 26 29 24 22 24 21 20 15 16 15 14 11 16 19 14 9 7 3 6 6 6 6 6 6 5 5 7
61 60 65 58 51 47 43 39 40 40 35 38 36 30 24 23 23 24 26 23 20 16 16 24 14 16 15 13 11 18 20 15 9 9 7 7 8 10 10 7 5 5 7 7
55 63 64 62 59 51 45 48 47 43 37 32 37 34 23 18 12 14 20 17 16 13 16 17 13 15 17 18 17 20 21 16 12 13 11 8 9 10 10 10 10 8 5 2
42 50 58 64 63 62 49 49 48 48 44 36 37 32 25 19 17 17 24 18 15 11 9 9 15 13 10 17 17 19 21 18 15 16 13 10 8 8 8 7 6 6 5 5
42 39 44 52 61 56 56 50 49 52 46 40 38 31 26 22 19 15 18 18 15 13 12 12 16 12 11 15 13 18 24 24 11 14 16 12 8 5 4 5 4 2 1 2
47 43 39 37 48 57 50 45 45 49 41 31 31 37 29 28 25 22 20 17 17 19 17 17 17 20 18 19 19 20 27 29 21 16 18 12 10 8 6 7 5 6 8 9
54 50 44 38 35 35 48 58 50 49 38 28 31 35 37 32 30 27 26 25 25 25 25 24 23 23 23 23 23 28 32 34 33 24 22 20 15 14 13 13 11 15 15 17
59 55 49 44 40 33 46 58 57 53 41 34 34 35 36 38 36 33 33 33 33 32 30 28 27 28 24 23 27 34 37 33 38 34 24 25 22 21 27 12 16 21 22 25
Wind_Direction
224 214 188 170 189 205 177 112 60 93 326 188 186 80 60 20 258 215 302 285 167 162 155 149 162 191 202 229 243 249 252 258 256 262 266 264 265 263 266 272 270 272 262 251
242 188 201 199 185 165 152 104 87 38 68 98 196 198 5 14 50 52 317 184 247 180 160 149 144 172 199 218 261 240 233 246 250 265 268 275 270 259 259 259 260 261 266 246
243 201 210 197 171 164 156 123 170 118 101 90 205 220 201 109 46 144 175 223 236 242 153 145 149 145 159 198 241 258 233 265 270 256 285 300 281 271 255 251 257 262 271 294
238 216 216 202 184 175 167 216 196 180 171 177 182 211 191 173 149 39 236 210 204 223 211 186 141 117 112 114 203 238 219 247 262 272 310 301 296 296 291 279 258 258 257 281
235 220 220 207 185 177 192 208 212 195 190 182 194 216 259 332 282 233 215 216 206 204 218 216 182 163 158 137 116 4 58 56 287 18 357 339 329 286 272 277 254 231 249 279
223 216 216 191 187 192 203 214 226 210 192 191 207 206 175 268 288 297 194 212 221 210 212 216 220 210 232 207 195 231 50 39 47 47 357 338 309 305 280 268 234 239 252 281
232 225 215 208 196 199 207 214 227 244 227 200 218 207 178 233 248 245 223 223 226 210 216 228 239 236 221 211 140 182 148 91 4 6 321 300 258 266 267 241 229 203 270 176
228 227 222 225 217 211 220 233 241 250 252 238 238 219 195 198 216 230 245 255 249 217 220 244 252 249 215 229 136 142 128 95 339 309 298 294 265 261 256 234 205 197 206 240
210 228 229 224 226 219 220 228 239 247 250 250 244 234 200 214 238 250 239 244 233 237 227 247 260 246 227 221 171 151 135 111 36 321 289 286 254 254 243 230 215 208 204 222
194 198 219 219 215 218 224 228 229 236 247 256 265 255 226 215 201 271 253 248 220 230 239 258 256 246 250 231 191 177 86 72 44 310 275 265 261 240 226 227 223 219 217 231
177 196 211 220 219 215 220 226 231 240 242 255 268 270 269 207 198 235 262 200 212 230 247 253 242 238 251 244 215 228 39 32 14 321 267 264 272 234 213 220 226 222 224 236
192 199 201 214 219 221 220 231 235 241 243 257 265 272 284 231 215 235 246 236 208 206 222 238 229 244 243 253 244 241 270 339 353 333 262 262 277 211 199 209 225 221 215 230
219 211 201 200 210 213 218 229 236 241 249 258 264 269 240 206 210 220 224 225 220 220 229 219 239 259 257 262 279 250 264 294 319 315 264 260 255 194 191 207 210 221 217 220
230 229 226 217 207 211 220 230 234 240 244 239 249 272 253 198 204 207 213 217 226 218 216 201 217 239 263 263 267 245 256 286 303 302 278 236 218 174 188 206 211 210 208 209
241 236 239 240 228 222 223 228 227 230 242 237 250 242 231 215 200 198 192 227 204 194 208 217 205 239 271 249 253 248 256 278 299 296 261 241 233 189 189 214 213 206 213 211
246 250 248 242 232 219 219 214 222 226 240 242 248 258 230 249 210 201 202 210 195 193 202 217 207 231 263 236 263 241 246 274 287 269 246 259 226 195 184 196 215 211 218 214
240 245 252 248 236 222 221 218 228 230 237 248 252 266 236 237 246 207 213 207 210 216 221 234 232 221 272 262 275 263 248 270 277 250 250 244 201 188 181 181 185 193 218 215
233 242 246 248 248 237 230 227 228 231 235 240 248 238 241 264 270 208 219 220 220 220 216 224 237 229 242 283 282 258 248 256 275 200 230 119 146 140 153 160 171 184 217 208
230 232 242 243 240 244 243 240 236 233 234 236 251 243 255 245 229 209 224 222 220 213 214 220 221 232 232 270 272 247 246 242 258 166 108 92 99 117 143 159 150 121 110 169
234 232 232 239 237 238 235 238 242 238 242 235 239 243 245 256 247 230 231 224 228 215 190 198 206 211 240 250 244 229 240 234 250 163 133 100 98 88 91 108 130 121 120 136
230 230 230 232 236 234 234 234 238 242 244 236 230 239 234 234 249 237 219 224 218 204 212 216 223 221 236 249 252 229 233 231 210 182 174 150 113 101 99 92 82 78 75 81
235 231 228 229 233 233 230 226 229 237 245 237 230 233 220 228 241 219 207 212 211 221 236 251 236 216 229 255 265 234 224 215 222 194 185 185 159 136 121 115 105 95 82 58
230 233 231 231 230 233 227 223 228 236 241 247 231 222 213 216 216 204 214 218 218 217 244 264 262 257 268 262 272 230 216 213 210 200 200 199 200 185 181 174 170 176 267 317
228 230 231 231 227 231 228 218 220 234 237 236 229 222 221 221 216 209 217 220 217 223 242 251 249 259 273 268 260 227 221 216 219 212 213 212 213 226 254 284 287 267 257 256
228 229 230 233 234 228 226 219 221 226 229 214 215 219 219 224 225 212 214 216 221 230 234 236 255 269 281 237 245 226 226 216 220 220 223 224 230 249 237 257 277 291 293 271
227 228 229 230 232 229 217 216 222 223 221 205 205 214 219 221 217 216 213 216 225 231 239 251 263 264 270 231 236 220 224 224 223 229 226 235 240 253 265 289 280 283 283 284